sat.trackr.live / text

‹ back to catalog

YAOGAN-36 03B

NORAD 54374 · 2022-160C

PAYLOAD ACTIVE UNKNOWN

§ Identity

Operator
Country
PRC
Launch date
2022-11-27
Launch site
XICLF
Launch vehicle
Mass (kg)
RCS (m²)

External: N2YO · Heavens-Above · Gunter

§ Orbital elements

Epoch: 2026-09-20T23:13:34.788864Z

Period
94.61 min
Inclination
34.9917°
Eccentricity
0.0009594
Mean motion
15.21968063 rev/d
Perigee alt
493.3 km
Apogee alt
506.5 km
Semi-major
6,878.0 km
B*
1.6626e-4
RAAN
124.8302°
Arg perigee
299.8775°
Mean anomaly
60.0985°
Rev number
21,232

§ Raw data

YAOGAN-36 03B1 54374U 22160C   26263.96776376  .00003855  00000+0  16626-3 0  99982 54374  34.9917 124.8302 0009594 299.8775  60.0985 15.21968063212321

JSON: /api/v1/satellites/54374 · /tle

For live sub-satellite position, see the globe view (requires WebGL).

§ Visibility from observer

Set your observer location to see the next 7 days of passes ≥ 10°. The values pass through the URL so the page stays shareable.

No JS? Fill the form by hand. The geolocation button needs JavaScript.